Regional Weather Roundup
Issued by NWS

Home | Current Version | Previous Version | Graphics & Text | Print | Product List | Glossary On
Versions: 1 2 3 4 5 6 7 8 9 10 11 12 13 14 15 16 17 18 19 20 21 22 23 24 25 26 27 28 29 30 31 32 33 34 35 36 37 38 39 40 41 42 43 44 45 46 47 48 49 50
000
ASUS43 KIND 172159
RWRIN

WEATHER ROUNDUP FOR INDIANA
NATIONAL WEATHER SERVICE INDIANAPOLIS IN
500 PM EST SAT FEB 17 2018

NOTE: "FAIR" INDICATES FEW OR NO CLOUDS BELOW 12,000 FEET WITH NO
SIGNIFICANT WEATHER AND/OR OBSTRUCTIONS TO VISIBILITY.

* - STATION DOES NOT REPORT WEATHER SUCH AS PRECIPITATION OR FOG.

+ - STATION NOT QUALITY CONTROLLED BY THE NATIONAL WEATHER SERVICE.
    USE DATA WITH CAUTION...ESPECIALLY DEWPOINT AND RELATIVE
    HUMIDITY OBSERVATIONS.

INZ001>003-010>013-019-020-172300-
NORTHWEST INDIANA

CITY           SKY/WX    TMP DP  RH WIND       PRES   REMARKS
GARY /AIRPORT/ LGT SNOW  34  32  93 S5        29.95R VSB 3/4 WCI  30
KNOX *+        CLOUDY    34  30  86 S10       29.95F WCI  26
MONTICELLO +   LGT SNOW  32  31  96 CALM      29.97S VSB 1

$$

LMZ046-743>745-172300-
SOUTHERN LAKE MICHIGAN

STATION/POSITION TIME  TEMP    WIND        PRES    WAVE
                       AIR SEA DIR/SP/G            HT
                 (UTC) (F)     (DEG/KT/KT) (MB)    (FT)
BURNS HARBOR     2140   34     200/ 10/ 16 1014.6R
MICHIGAN CITY    2130   34     170/ 14/ 17   N/A

$$

INZ004-005-014>016-021>024-172300-
NORTH CENTRAL INDIANA

CITY           SKY/WX    TMP DP  RH WIND       PRES   REMARKS
GOSHEN         CLOUDY    34  27  75 S8        29.95F WCI  27
SOUTH BEND     CLOUDY    33  26  75 SW6       29.95F WCI  28
WARSAW +       CLOUDY    34  28  80 S5        29.96F WCI  30

$$

INZ006>009-017-018-025>027-172300-
NORTHEAST INDIANA

CITY           SKY/WX    TMP DP  RH WIND       PRES   REMARKS
AUBURN +       CLOUDY    34  28  80 SW3       29.99R
FORT WAYNE     CLOUDY    35  29  78 SW6       30.00R WCI  30
KENDALLVILLE + CLOUDY    33  28  80 SW7       29.97S WCI  27

$$

INZ028-029-035-036-043>045-051>053-172300-
WEST CENTRAL INDIANA

CITY           SKY/WX    TMP DP  RH WIND       PRES   REMARKS
GREENCASTLE +  CLOUDY    32  32 100 S5        30.01S FOG     WCI  27
LAFAYETTE      LGT SNOW  32  32 100 S3        29.98S VSB 3/4
TERRE HAUTE    CLOUDY    35  34  96 S7        30.02R WCI  29

$$

INZ030>032-037>040-046>048-054>057-064-065-172300-
CENTRAL INDIANA

CITY           SKY/WX    TMP DP  RH WIND       PRES   REMARKS
COLUMBUS       LGT SNOW  32  32 100 SW6       30.04R VSB 1   WCI  26
GREENWOOD *+   CLOUDY   N/A N/A N/A SW3       30.01R
INDIANAPOLIS   LGT SNOW  35  33  92 S8        30.00R FOG     WCI  29
-EAGLE CREEK   MIX PCPN  35  32  88 S5        29.99R FOG     WCI  31
KOKOMO +       LGT SNOW  33  30  88 S6        29.99R FOG     WCI  28
MT COMFORT *+  CLOUDY    32  32 100 S6        30.00F WCI  26
SHELBYVILLE    LGT SNOW  34  32  92 SW7       30.01R FOG     WCI  28

$$

INZ033-034-041-042-049-050-058-059-172300-
EAST CENTRAL INDIANA

CITY           SKY/WX    TMP DP  RH WIND       PRES   REMARKS
MUNCIE         LGT SNOW  35  32  88 SW6       29.99R FOG     WCI  30
RICHMOND +     DRIZZLE   32  32 100 SW7       30.01R WCI  26

$$

INZ060-061-067>069-081>083-085>088-172300-
SOUTHWEST INDIANA

CITY           SKY/WX    TMP DP  RH WIND       PRES   REMARKS
EVANSVILLE     MIX PCPN  38  38 100 SW5       30.07R FOG     WCI  34
HUNTINGBURG +  MIX PCPN  37  36  96 SW3       30.06R FOG

$$

INZ062-063-066-070>080-084-089>092-172300-
SOUTH CENTRAL AND SOUTHEAST INDIANA

CITY           SKY/WX    TMP DP  RH WIND       PRES   REMARKS
BLOOMINGTON    LGT SNOW  34  33  96 SW5       30.02R FOG     WCI  30
FRENCH LICK *+ CLOUDY    34 N/A N/A SW5       30.05R WCI  30
SEYMOUR +      CLOUDY    36  34  93 S3        30.04R FOG

$$





USA.gov is the U.S. government's official web portal to all federal, state and local government web resources and services.